Location: Eaton Estates
(41.3089°N, 82.0057°W)
Time: 03:56:11
(UTC+00:00)

NOSS 2-2 (C) - Visible Passes

Search period start: 17 October 2021 00:00
Search period end: 27 October 2021 00:00
Orbit: 451 x 1756 km, 63.3° (Epoch: 15 October)

Date Brightness Start Highest point End Pass type
(mag) Time Alt. Az. Time Alt. Az. Time Alt. Az.
17 Oct 6.6 08:58:09 10° N 09:00:50 14° NE 09:03:55 10° ENE visible
17 Oct 5.0 10:46:45 10° NNW 10:52:11 64° NE 10:59:48 10° SE visible
18 Oct 5.6 10:01:28 10° NNW 10:06:31 41° NE 10:13:22 10° ESE visible
19 Oct 6.2 09:16:34 11° N 09:20:47 26° NE 09:26:29 10° E visible
19 Oct 4.7 11:06:03 10° NW 11:11:42 65° WSW 11:19:35 10° SSE visible
20 Oct 6.5 08:32:42 14° NNE 08:34:55 17° NE 08:39:02 10° E visible
20 Oct 4.6 10:20:31 10° NNW 10:26:04 81° NE 10:33:54 10° SE visible
21 Oct 7.0 07:48:54 11° NE 07:48:54 11° NE 07:50:40 10° NE visible
21 Oct 5.2 09:36:18 17° NNW 09:40:26 52° NE 09:47:44 10° SE visible
22 Oct 5.8 08:52:35 25° N 08:54:44 33° NE 09:01:05 10° ESE visible
22 Oct 4.9 10:40:01 10° NW 10:45:35 51° WSW 10:53:17 10° SSE visible
23 Oct 6.4 08:08:59 22° NE 08:08:59 22° NE 08:13:57 10° E visible
23 Oct 4.5 09:56:24 26° NW 09:59:57 80° WSW 10:07:53 10° SSE visible
24 Oct 7.1 07:25:28 11° ENE 07:25:28 11° ENE 07:26:10 10° ENE visible
24 Oct 4.8 09:12:53 51° N 09:14:19 66° NE 09:21:57 10° SE visible
24 Oct 5.8 11:00:19 11° WNW 11:05:03 25° WSW 11:11:17 10° SSW visible
25 Oct 5.8 00:55:11 10° SW 00:55:28 12° SW 00:55:28 12° SW visible
25 Oct 5.6 08:29:29 40° ENE 08:29:29 40° ENE 08:35:32 10° ESE visible
25 Oct 5.1 10:16:55 29° WNW 10:19:27 40° WSW 10:26:50 10° S visible
26 Oct 4.2 00:09:56 10° S 00:11:57 28° SSE 00:11:57 28° SSE visible
26 Oct 6.8 07:46:10 19° E 07:46:10 19° E 07:48:40 10° ESE visible
26 Oct 4.5 09:33:36 63° WSW 09:33:49 64° WSW 09:41:42 10° SSE visible
26 Oct 6.4 11:22:49 10° W 11:24:20 11° WSW 11:25:56 10° WSW visible
26 Oct 4.5 23:25:28 10° SSE 23:27:50 17° ESE 23:28:25 17° ESE visible
